User: anonymous   Login
Location: Unspecified
(41.1637°N, 24.2901°E)
Time: 08:47:39
(UTC+01:00)
Language:

ISS - Orbit

View from above orbital plane
View from above orbital plane
View from above satellite
View from above satellite

Ground track
Ground track

The orbit data is extracted from the following two-line orbital elements,

1 25544U 98067A   21335.16955992  .00004593  00000-0  92355-4 0  9999
2 25544  51.6443 237.0627 0004306 264.0101 248.8186 15.48719055314470
Epoch (UTC): 01 December 2021 04:04:09
Eccentricity: 0.0004306
inclination: 51.6443°
perigee height: 417 km
apogee height: 423 km
right ascension of ascending node: 237.0627°
argument of perigee: 264.0101°
revolutions per day: 15.48719055
mean anomaly at epoch: 248.8186°
orbit number at epoch: 31447

The dashed part of the orbit path shows where the satellite is in the earth's shadow,  

DLR